Home > Weather > Wanon Niwat > Past weeks

Flag for Thailand Past Weather in Wanon Niwat, Thailand — Yesterday and Last 2 Weeks

Now
79 °F

Partly sunny.


Feels Like: 83 °F
Forecast: 75 / 86 °F
Wind: 3 mph from Northeast

Location: Udon Thani Airport

Current Time: Jul 28, 2016 at 11:58:49 AM

Latest Report: Jul 28, 2016 at 11:00 AM


Visibility: 5 mi

Pressure: 29.74 "Hg

Humidity: 94%

Dew Point: 77 °F

Location of Wanon NiwatLocation

Past Weather in Wanon Niwat — Graph

°F

Wanon Niwat Temperature Yesterday

Maximum temperature yesterday: 91 °F (at 3:00 PM)
Minimum temperature yesterday: 77 °F (at 5:00 AM)
Average temperature yesterday: 84 °F

High & Low Weather Summary for the Past Weeks

 TemperatureHumidityPressure
High97 °F (Jul 17, 3:00 PM)100% (Jul 14, 9:00 PM)29.89 "Hg (Jul 14, 9:00 PM)
Low73 °F (Jul 18, 9:00 PM)50% (Jul 18, 4:00 PM)29.56 "Hg (Jul 13, 4:00 PM)
Average83 °F81%29.76 "Hg
* Reported Jul 13 10:00 AM — Jul 28 10:00 AM, Wanon Niwat, Weather by CustomWeather, © 2016

Note: Actual official high and low records may vary slightly from our data, if they occured in-between our weather recording intervals... More about our weather records

Advertising

Wanon Niwat Weather History for the Previous 24 Hours

Scroll right to see more
 ConditionsComfort  
Time TempWeatherWind HumidityBarometerVisibility
10:00 AM
Thu, Jul 28
77 °FLight rain. Mostly cloudy.3 mph100%29.77 "Hg4 mi
9:00 AM79 °FMostly cloudy.3 mph89%29.74 "HgN/A
8:00 AM77 °FPartly sunny.3 mph94%29.74 "HgN/A
7:00 AM77 °FMostly cloudy.1 mph94%29.74 "Hg5 mi
6:00 AM75 °FLight rain. Mostly cloudy.2 mph100%29.71 "Hg5 mi
5:00 AM75 °FLight rain. Passing clouds.3 mph100%29.71 "HgN/A
4:00 AM75 °FLight rain. Passing clouds.6 mph100%29.71 "HgN/A
3:00 AM75 °FLight rain. Overcast.5 mph100%29.68 "HgN/A
2:00 AM75 °FRain. Overcast.No wind100%29.68 "HgN/A
1:00 AM75 °FLight rain. Passing clouds.5 mph94%29.71 "HgN/A
12:00 AM77 °FLight rain. Overcast.6 mph89%29.74 "HgN/A
11:00 PM
Wed, Jul 27
79 °FPartly cloudy.10 mph84%29.74 "HgN/A
10:00 PM84 °FPassing clouds.5 mph79%29.71 "HgN/A
9:00 PM86 °FPassing clouds.5 mph79%29.71 "HgN/A
8:00 PM86 °FPassing clouds.5 mph79%29.71 "HgN/A
7:00 PM86 °FClear.3 mph79%29.65 "Hg10 mi
6:00 PM88 °FPassing clouds.6 mph70%29.62 "HgN/A
5:00 PM90 °FPassing clouds.5 mph67%29.62 "HgN/A
4:00 PM90 °FPassing clouds.6 mph67%29.62 "HgN/A
3:00 PM91 °FPassing clouds.2 mph59%29.65 "HgN/A
2:00 PM90 °FScattered clouds.6 mph63%29.68 "HgN/A
1:00 PM90 °FPassing clouds.6 mph63%29.71 "HgN/A
12:00 PM88 °FPassing clouds.6 mph70%29.74 "HgN/A
11:00 AM86 °FPassing clouds.3 mph66%29.74 "HgN/A
Weather by CustomWeather, © 2016

See weather overviewHow to use our weather pages